Hulls Cove, Maine
Current Conditions -  °F | °C
As of 12:55 PM on Thursday 23 Oct 2014 (Local Time) from KBHB Reporting Station
Overcast Overcast  
Wind Chill: 52°   Ceiling: 800
Heat Index: 52°   Visibility: 2.5mi
Dew Point: 52°   Wind: 16mph
Humidity: 100%   Direction: 50°NE
Pressure: 29.83"   Gusts: 26mph
Location:  44.42°N, 68.25°W
Report Text: KBHB 231655Z AUTO 05014G23KT 2 1/2SM OVC008 11/11 A2983 RMK AO1 P0002
Loading
Personal Weather Stations






























Interactive Weather Map
Tropical Storm Tracking
New forecast layout! Learn more

10-Day Weather Forecast

Advertisements
Track Severe Weather on mobile